TimeCDT,TemperatureF,Dew PointF,Humidity,Sea Level PressureIn,VisibilityMPH,Wind Direction,Wind SpeedMPH,Gust SpeedMPH,PrecipitationIn,Events,Conditions,WindDirDegrees,DateUTC
12:53 AM,30.0,15.1,54,30.12,10.0,East,5.8,-,N/A,,Clear,100,2013-03-21 05:53:00
1:53 AM,30.9,16.0,54,30.10,10.0,East,6.9,-,N/A,,Clear,100,2013-03-21 06:53:00
2:53 AM,32.0,14.0,48,30.09,10.0,East,6.9,-,N/A,,Clear,90,2013-03-21 07:53:00
3:53 AM,32.0,14.0,48,30.07,10.0,East,8.1,-,N/A,,Overcast,90,2013-03-21 08:53:00
4:53 AM,30.9,14.0,50,30.05,10.0,ESE,9.2,-,N/A,,Scattered Clouds,110,2013-03-21 09:53:00
5:53 AM,32.0,12.9,45,30.04,10.0,East,9.2,-,N/A,,Mostly Cloudy,90,2013-03-21 10:53:00
6:53 AM,33.1,12.0,42,30.02,10.0,East,10.4,-,N/A,,Overcast,90,2013-03-21 11:53:00
7:53 AM,33.1,12.0,42,30.03,10.0,East,9.2,-,N/A,,Overcast,90,2013-03-21 12:53:00
8:53 AM,33.1,12.9,43,30.03,10.0,East,11.5,-,N/A,,Overcast,100,2013-03-21 13:53:00
9:53 AM,35.1,12.9,40,30.02,10.0,East,11.5,-,N/A,,Overcast,100,2013-03-21 14:53:00
10:53 AM,37.9,10.0,32,29.99,10.0,ESE,13.8,-,N/A,,Overcast,120,2013-03-21 15:53:00
11:53 AM,39.0,10.9,32,29.97,10.0,East,13.8,-,N/A,,Overcast,90,2013-03-21 16:53:00
12:53 PM,39.0,12.9,34,29.95,10.0,ESE,15.0,24.2,N/A,,Overcast,110,2013-03-21 17:53:00
1:53 PM,37.9,21.0,51,29.92,10.0,ESE,17.3,-,0.00,Rain,Light Rain,120,2013-03-21 18:53:00
2:34 PM,37.4,21.2,52,29.89,2.0,ESE,11.5,19.6,0.00,Snow,Light Snow,120,2013-03-21 19:34:00
2:49 PM,33.8,28.4,81,29.88,0.5,East,16.1,23.0,0.00,Snow,Snow,100,2013-03-21 19:49:00
2:53 PM,34.0,28.9,82,29.89,0.5,East,15.0,21.9,0.01,Snow,Snow,100,2013-03-21 19:53:00
2:57 PM,33.8,28.4,81,29.87,0.8,ESE,16.1,-,0.00,Snow,Light Snow,110,2013-03-21 19:57:00
3:23 PM,33.8,30.2,87,29.85,1.0,East,11.5,23.0,0.03,Snow,Light Snow,100,2013-03-21 20:23:00
3:53 PM,33.1,30.0,89,29.87,8.0,East,8.1,18.4,0.05,Rain,Light Freezing Rain,80,2013-03-21 20:53:00
4:21 PM,32.0,30.2,93,29.85,10.0,East,11.5,-,0.00,,Overcast,80,2013-03-21 21:21:00
4:53 PM,33.1,30.0,89,29.87,7.0,East,8.1,-,0.01,Rain,Light Freezing Rain,80,2013-03-21 21:53:00
5:16 PM,32.0,30.2,93,29.84,6.0,East,11.5,-,0.00,Rain,Light Rain,90,2013-03-21 22:16:00
5:53 PM,32.0,28.9,88,29.86,8.0,East,12.7,-,0.00,,Overcast,90,2013-03-21 22:53:00
6:53 PM,32.0,28.9,88,29.87,3.0,East,13.8,-,0.01,Rain,Light Rain,90,2013-03-21 23:53:00
7:53 PM,32.0,28.9,88,29.88,5.0,East,12.7,-,0.03,Snow,Light Snow,80,2013-03-22 00:53:00
8:26 PM,32.0,28.4,87,29.85,8.0,North,-9999.0,-,0.01,Rain,Light Freezing Rain,0,2013-03-22 01:26:00
8:53 PM,32.0,28.9,88,29.88,9.0,North,-9999.0,-,0.01,Rain,Light Freezing Rain,0,2013-03-22 01:53:00
9:16 PM,32.0,28.4,87,29.86,10.0,North,-9999.0,-,0.01,Rain,Light Freezing Rain,0,2013-03-22 02:16:00
9:53 PM,32.0,28.9,88,29.88,10.0,East,16.1,21.9,0.01,Rain,Light Freezing Rain,100,2013-03-22 02:53:00
10:15 PM,32.0,28.4,87,29.86,10.0,East,12.7,-,0.00,,Overcast,100,2013-03-22 03:15:00
10:24 PM,33.8,28.4,81,29.86,10.0,North,-9999.0,-,0.00,,Overcast,0,2013-03-22 03:24:00
10:53 PM,33.1,28.9,85,29.88,10.0,ESE,13.8,-,0.00,,Overcast,110,2013-03-22 03:53:00
11:53 PM,33.1,28.9,85,29.87,10.0,East,10.4,-,N/A,,Overcast,100,2013-03-22 04:53:00